View from above orbital plane
|
View from above satellite
|
Ground track
|
The orbit data is extracted from the following two-line orbital elements,
1 25520U 98064B 13141.94404353 .00002939 00000-0 11958-3 0 2536
2 25520 028.4596 348.8204 0004818 132.0281 002.5621 15.21089404806966
| Epoch (UTC): | 21 May 2013 22:39:25 |
| Eccentricity: | 0.0004818 |
| inclination: | 28.4596° |
| perigee height: | 499 km |
| apogee height: | 506 km |
| right ascension of ascending node: | 348.8204° |
| argument of perigee: | 132.0281° |
| revolutions per day: | 15.21089404 |
| mean anomaly at epoch: | 2.5621° |
| orbit number at epoch: | 80696 |
The dashed part of the orbit path shows where the satellite is in the earth's shadow,
|
|